Regional Weather Roundup
Issued by NWS

Home | Current Version | Previous Version | Text Only | Print | Product List | Glossary On
Versions: 1 2 3 4 5 6 7 8 9 10 11 12 13 14 15 16 17 18 19 20 21 22 23 24 25 26 27 28 29 30 31 32 33 34 35 36 37 38 39 40 41 42 43 44 45 46 47 48 49 50
000
ASHW40 PHFO 290412
RWRHI

WEATHER ROUNDUP FOR HAWAII
NATIONAL WEATHER SERVICE HONOLULU HI
600 PM HST THU APR 28 2016

THIS IS AN AUTOMATED REPORT THAT HAS NOT BEEN QUALITY CONTROLLED.

NOTE..."FAIR" INDICATES FEW OR NO CLOUDS BELOW 12,000 FEET WITH NO
SIGNIFICANT WEATHER AND/OR OBSTRUCTIONS TO VISIBILITY.

* - THESE SITES REPORT LIMITED FIELDS

HIZ001>004-290500-
KAUAI-NIIHAU-

CITY           SKY/WX    TMP DP  RH WIND       PRES   REMARKS
LIHUE APT      CLOUDY    80  67  64 E13       30.09R
PORT ALLEN*      N/A     81 N/A N/A E18G25      N/A
POIPU*           N/A     79 N/A N/A NE8G16      N/A
PRINCEVILLE*     N/A     79 N/A N/A E9G15       N/A
KOKOLE POINT*  NOT AVBL
MOLOAA DAIRY*    N/A     77  68  73 E5G12       N/A
WAIMEA HTS*    NOT AVBL
PUU OPAE*      NOT AVBL
PUU LUA*       NOT AVBL
MAKAHA RIDGE*  NOT AVBL
$$

HIZ005>011-290500-
OAHU-

CITY           SKY/WX    TMP DP  RH WIND       PRES   REMARKS
HONOLULU       MOSUNNY   81  64  56 NE14      30.06R
KALAELOA       MOSUNNY   83  62  49 VRB7      30.06R
KANEOHE MCB    PTSUNNY   78  67  68 E13       30.05R
WHEELER FIELD  FAIR      78  63  59 E15       30.07R
BELLOWS*       NOT AVBL
KAHUKU*        NOT AVBL
WHEELER*       NOT AVBL
WAIANAE HARBOR NOT AVBL
DILLINGHAM*      N/A     82  59  44 MISG        N/A
KAHUKU TRN*      N/A     82  70  65 CALM        N/A
KAWAILOA*        N/A     73  63  68 E10G18      N/A
KII*             N/A     79  68  69 E14         N/A
MAKUA RANGE*     N/A     82  59  44 E9G17       N/A
OAHU FOREST NW NOT AVBL
SCHOFIELD BRK*   N/A     81  64  57 MISG        N/A
SCHOFIELD S*   NOT AVBL
WAIANAE VLY*   NOT AVBL
KUAOKALA*      NOT AVBL
HONOULIUULI*   NOT AVBL
MOKUOLOE IS*   NOT AVBL
PALEHUA*       NOT AVBL
WAIAWA PHB*    NOT AVBL
$$

HIZ012>013-290500-
MOLOKAI-

CITY           SKY/WX    TMP DP  RH WIND       PRES   REMARKS
MOLOKAI AIRPT  SUNNY     77  64  64 NE15G29   30.05R
KALAUPAPA      NOT AVBL
MAKAPULAPAI*   NOT AVBL
MOLOKAI 1*     NOT AVBL
PUU ALII*      NOT AVBL
$$

HIZ016-290500-
KAHOOLAWE-

CITY           SKY/WX    TMP DP  RH WIND       PRES   REMARKS
KAHOOLAWE*     NOT AVBL
HAKIOAWA*      NOT AVBL
HONOKANAIA*      N/A     82  62  50 NE21G38   29.95S
KANELOA*         N/A     77  66  69 E21G38    30.08S
KEALIALALO*    NOT AVBL
LUA MAKIKA*    NOT AVBL
$$

HIZ014>015-290500-
LANAI-

CITY           SKY/WX    TMP DP  RH WIND       PRES   REMARKS
LANAI CITY     FAIR      73  63  70 NE9       30.09R
LANAI 1*       NOT AVBL
$$

HIZ017>028-290500-
MAUI-

CITY           SKY/WX    TMP DP  RH WIND       PRES   REMARKS
KAHULUI        MOSUNNY   80  65  59 E18G29    30.01R
KAPALUA-W MAUI MOSUNNY   77  63  61 E21G26    30.03
HANA AIRPORT   NOT AVBL
HANA*            N/A     79 N/A N/A E7G14       N/A
HALEAKALA SUMM   N/A     50 -11   7 E29         N/A
MAALAEA BAY*   NOT AVBL
HALEAKALA*     NOT AVBL
KAUPO GAP*     NOT AVBL
KULA 1*          N/A     60  53  76 SW5         N/A
$$

HIZ023>026-290500-
BIG ISLAND OF HAWAII COAST AND LOWER SLOPES-

CITY           SKY/WX    TMP DP  RH WIND       PRES   REMARKS
KAILUA KONA    MOCLDY    82  67  60 S10       30.01R
HILO           MOCLDY    76  67  73 E10       30.07R
HONOKAA*         N/A     72 N/A N/A VRB1        N/A
KAWAIHAE MWT*    N/A     82 N/A N/A W8          N/A
KAWAIHAE*      NOT AVBL
SOUTH POINT*     N/A     73 N/A N/A N17G24      N/A
UPOLU AIRPORT*   N/A    N/A N/A N/A NE17G25     N/A
KAMUELA*       CLOUDY    68  63  83 N12       30.14S
HAKALAU*         N/A     55  47  75 SW7         N/A
KALOKO-HONOKO* NOT AVBL
PALI 2*          N/A     68  57  68 SW9G21      N/A
KEALAKOMO*       N/A     77  66  69 E18G26      N/A
KAUPULEHU*     NOT AVBL
KAPAPALA*        N/A     71  64  78 E7G15       N/A
LOWER KAHUKU*  NOT AVBL
PUHE CS*       NOT AVBL
PUHO CS*       NOT AVBL
PTA KEAMUKU*     N/A     64  59  82 CALM        N/A
WAIKOLOA*      NOT AVBL
$$

HIZ027>028-290500-
BIG ISLAND OF HAWAII INTERIOR AND SUMMMITS-

CITY           SKY/WX    TMP DP  RH WIND       PRES   REMARKS
BRADSHAW FIELD CLEAR     60  40  47 S9G16     30.34R
MK VISITOR CEN   N/A     50  19  29 NW5         N/A
MAUNA KEA*       N/A     43 -15   8 NE10        N/A
MAUNA LOA*     NOT AVBL
MAUNA LOA 1*   NOT AVBL
PTA KIPUKA*      N/A     63  57  82 N6G13       N/A
PTA RANGE 17*    N/A     66  59  77 NW9G15      N/A
PTA WEST*        N/A     72  66  83 NW9         N/A
NENE CABIN*    NOT AVBL
AHUMOA*        NOT AVBL
PTA PORTABLE*  NOT AVBL
PUU MALI*        N/A     55  54  94 N3G12       N/A
$$

HIC003-290500-
NORTHWEST ISLANDS-

CITY           SKY/WX    TMP DP  RH WIND       PRES   REMARKS
MIDWAY ISLAND  SUNNY     77  70  78 SW14      30.04S
MIDWAY NOS*    NOT AVBL
FRENCH FRIGATE NOT AVBL
$$

PHZ110>124-180-290500-
BUOY REPORTS

STATION/POSITION TIME  TEMP    WIND        PRES    WAVE   SWELL
                       AIR SEA DIR/SP/G            HT/PER HT/DIR
                 (UTC) (F)     (DEG/KT/KT) (MB)    (FT/S) (FT/D)
BUOY 51001       NOT AVBL
BUOY 51101       NOT AVBL
BUOY 51100       NOT AVBL
BUOY 51002       NOT AVBL
BUOY 51003       NOT AVBL
BUOY 51004       NOT AVBL
BARBERS PT BUOY  NOT AVBL
WAIMEA BAY BUOY  0304      78                N/A     4/11   2/350
KAILUA BAY BUOY  0311      78                N/A     7/ 9   2/ 60
LANAI BUOY       0315      79                N/A     3/13   2/200
BARBERS PT 2     0303      79                N/A     5/15   2/200
PAUWELA MAUI     0339      76                N/A     8/ 9   3/360
HILO             0312      78                N/A     8/ 9   3/110
KANEOHE BAY BUOY 0306      77                N/A     6/10   2/ 20
HANALEI KAUAI    NOT AVBL
KAHULUI HARBOR   0300   80 78              1016.0R
HONOLULU HARBOR  0300   81 79              1017.9R
KILO NALU        NOT AVBL
HILO HARBOR      0300   83 76              1017.3R
MOKUOLOE         0300   78 79  100/  9/ 14 1017.8R
NAWILIWILI       0300   78 81              1017.8R
WHOTS BUOY       NOT AVBL
BUOY 51028       NOT AVBL
$$

......................KEY........................................
  SKY/WX - SKY CONDITIONS/PRESENT WEATHER
  TMP    - TEMPERATURE IN FAHRENHEIT
  DWPT   - DEWPOINT IN FAHRENHEIT
  RH     - RELATIVE HUMIDITY IN PERCENT
  WIND   - DIRECTION AND SPEED /MPH FOR ISLANDS...KTS FOR BUOYS/
  PRES   - MEAN SEA LEVEL PRESSURE IN INCHES OF HG
  VSB    - VISIBILITY IN MILES
  HX     - HEAT INDEX
  WCI    - WIND CHILL INDEX
  VRB    - VARIABLE WIND DIRECTION
  N/A    - NOT AVAILABLE




USA.gov is the U.S. government's official web portal to all federal, state and local government web resources and services.